Погода в Бербере

Сомали     10°13′38″N   45°14′46″E
темп.,
°C
ветер,
м/с
пор.,
м/с
влажн.,
%
обл.,
%
осадки,
мм/ч
давл.,
гПа
погр.,
м
22 апреля, чт
чт2200:00+27сз236464 0.0 1011174
03:00+25зсз3477100 0.0 1010194
06:00+25з11805 0.0 101286
09:00+30ссв144641 0.0 10121197
12:00+36ссв553013 0.0 10092680
15:00+33с65455 0.0 1007905
18:00+30св44575 0.0 1009768
21:00+29в22615 0.1 1010249
23 апреля, пт
пт2300:00+27зсз447498 0.0 1010231
03:00+25зсз33865 0.4 1009160
06:00+24сз2290100 1.0 1011109
09:00+29ссв02574 1.2 1012907
12:00+36ссв442967 0.0 10083027
15:00+32ссз54518 0.3 10071136
18:00+27юв9106116 1.8 1009408
21:00+31всв34408 2.4 1009281
24 апреля, сб
сб2400:00+29сз22505 0.0 100887
03:00+25зсз338112 0.1 1008111
06:00+25зсз228811 0.2 1010154
09:00+30св135310 0.7 1011999
12:00+36всв342987 0.0 10083053
15:00+32с435385 0.6 1006897
18:00+31всв545260 0.1 1007562
21:00+31в454379 0.1 1008385
25 апреля, вс
вс2500:00+27зсз337396 0.4 100980
03:00+28зсз336943 1.6 1008125
06:00+26ссз227436 1.1 101157
09:00+31вюв2444100 1.6 10121349
12:00+35ю553160 0.0 10092637
15:00+33ссз234199 0.5 10071467
18:00+27в576497 0.9 1008239
21:00+30ссз2251100 0.9 1010222
26 апреля, пн
пн2600:00+27з1275100 0.4 1010204
03:00+27ссз2270100 1.8 100976
06:00+28з0162100 1.3 1010149
09:00+29сз125291 1.5 10121077
12:00+33вюв1438100 0.0 10092095
15:00+32с5345100 0.1 1007976
18:00+27с1166100 1.8 1009141
21:00+29юв4755100 1.8 1010541